Zurück zum Katalog

FENGYUN 1C DEB

AktivSSO
NORAD 30530·DEBRIS·🇨🇳 China

Gestartet May 10, 1999 von Taiyuan Satellite Launch Center

Loading…

Nächste Überflüge (nächste 24 Stunden)

TLE

AktuellSource: Space-Track

Epoche: Sep 14, 2026, 08:04 UTC

1 30530U 99025AJU 26257.33621619  .00000393  00000-0  13891-3 0  9999
2 30530  98.3648 293.5250 0099465  33.6256  26.4569 14.37146411 27446

Verfolge FENGYUN 1C DEB in Echtzeit mit AllMySat

Download on the App Store